Regional Weather Roundup
Issued by NWS

Home | Current Version | Previous Version | Text Only | Print | Product List | Glossary Off
Versions: 1 2 3 4 5 6 7 8 9 10 11 12 13 14 15 16 17 18 19 20 21 22 23 24 25 26 27

000
ASUS45 KCYS 190010
RWRWY

WYOMING REGIONAL WEATHER ROUNDUP
NATIONAL WEATHER SERVICE CHEYENNE WY
600 PM MDT FRI AUG 18 2017

NOTE:  "FAIR" INDICATES FEW OR NO CLOUDS BELOW 12,000 FEET
WITH NO SIGNIFICANT WEATHER AND/OR OBSTRUCTIONS TO VISIBILITY.

WYZ001-190100-
YELLOWSTONE NATIONAL PARK

CITY           SKY/WX    TMP DP  RH WIND       PRES   REMARKS
LK YELLOWSTONE   N/A     71  26  18 VRB7G16   30.32S
6HR MIN TEMP:  65; 6HR MAX TEMP:  72;

W YELLOWSTONE  NOT AVBL

$$
WYZ002>013-054>058-071-098>099-190100-
NORTHERN WYOMING

CITY           SKY/WX    TMP DP  RH WIND       PRES   REMARKS
JACKSON        FAIR      78  31  17 W13       30.20F
CODY           NOT AVBL
GREYBULL       FAIR      90  31  12 CALM      29.95F
6HR MIN TEMP:  80; 6HR MAX TEMP:  91;

WORLAND        FAIR      89  28  11 E7        29.97F
6HR MIN TEMP:  82; 6HR MAX TEMP:  91;

SHERIDAN       FAIR      89  38  16 E3        29.97F
6HR MIN TEMP:  84; 6HR MAX TEMP:  92;

BUFFALO        FAIR      87  30  13 VRB6      30.05F
6HR MIN TEMP:  82; 6HR MAX TEMP:  89;

GILLETTE       FAIR      87  30  13 CALM      30.00F
6HR MIN TEMP:  81; 6HR MAX TEMP:  88;

HULETT         FAIR      84  32  15 NW3       30.03S
NEWCASTLE      FAIR      86  30  13 CALM      30.03S

$$
WYZ014>020-022>026-101>103-190100-
CENTRAL WYOMING

CITY           SKY/WX    TMP DP  RH WIND       PRES   REMARKS
BIG PINEY      FAIR      80  29  15 W7        30.24S
6HR MIN TEMP:  70; 6HR MAX TEMP:  81;

PINEDALE       FAIR      79  27  14 NW10G20   30.25S
DUBOIS         FAIR      75  25  15 N17       30.22R
LANDER           N/A    N/A N/A N/A MISG      30.06F
RIVERTON       FAIR      85  27  12 SE7       30.08F
6HR MIN TEMP:  75; 6HR MAX TEMP:  86;

CASPER         FAIR      86  28  12 SW10      30.07F
6HR MIN TEMP:  78; 6HR MAX TEMP:  87;

DOUGLAS        FAIR      84  38  19 NW10      30.07F
6HR MIN TEMP:  81; 6HR MAX TEMP:  86;


$$
WYZ021-027>030-104>119-190100-
SOUTHERN WYOMING

CITY           SKY/WX    TMP DP  RH WIND       PRES   REMARKS
EVANSTON       FAIR      79  31  17 W20G31    30.29S
6HR MIN TEMP:  77; 6HR MAX TEMP:  82;

KEMMERER         N/A    N/A N/A N/A W22G32    30.29R
FORT BRIDGER   FAIR      82  27  13 W18G29    30.30R
ROCK SPRINGS   FAIR      83  23  11 W17G28    30.21F
6HR MIN TEMP:  75; 6HR MAX TEMP:  84;

RAWLINS        FAIR      81  29  15 W10       30.22S
6HR MIN TEMP:  74; 6HR MAX TEMP:  83;

SARATOGA       FAIR      79  32  18 W5G21     30.27S
LARAMIE        FAIR      79  29  16 NW14G20   30.26S
6HR MIN TEMP:  72; 6HR MAX TEMP:  80;

CHEYENNE       PTSUNNY   80  41  24 S7        30.18S
6HR MIN TEMP:  76; 6HR MAX TEMP:  85;

TORRINGTON     FAIR      86  42  21 SE12      30.03S
6HR MIN TEMP:  80; 6HR MAX TEMP:  90;

PINE BLUFFS    FAIR      82  39  21 S7        30.12S

$$




USA.gov is the U.S. government's official web portal to all federal, state and local government web resources and services.